owner,sensor,date,latitude,longitude,vertical_datum,wind_speed,wind_to_direction,wind_speed_of_gust,qcFlag 
COMPS,ioos:station:USF.COMPS:ARP:1,2014-12-01T00:00:00Z,28.4330,-82.6670,10.0,1.23,84.99,1.76,'1111122,1111122,1111122' 
COMPS,ioos:station:USF.COMPS:ARP:1,2014-12-01T00:06:00Z,28.4330,-82.6670,10.0,1.33,82.16,1.86,'1111122,1111122,1111122' 
COMPS,ioos:station:USF.COMPS:ARP:1,2014-12-01T00:12:00Z,28.4330,-82.6670,10.0,1.48,79.26,1.95,'1111122,1111122,1111122' 
COMPS,ioos:station:USF.COMPS:ARP:1,2014-12-01T00:18:00Z,28.4330,-82.6670,10.0,1.72,82.61,2.35,'1111122,1111122,1111122' 
COMPS,ioos:station:USF.COMPS:ARP:1,2014-12-01T00:24:00Z,28.4330,-82.6670,10.0,1.82,79.79,2.45,'1111122,1111122,1111122' 
COMPS,ioos:station:USF.COMPS:ARP:1,2014-12-01T00:30:00Z,28.4330,-82.6670,10.0,1.86,78.1,2.45,'1111122,1111122,1111122' 
COMPS,ioos:station:USF.COMPS:ARP:1,2014-12-01T00:36:00Z,28.4330,-82.6670,10.0,1.86,83.59,2.64,'1111122,1111122,1111122' 
COMPS,ioos:station:USF.COMPS:ARP:1,2014-12-01T00:42:00Z,28.4330,-82.6670,10.0,2.04,87.61,2.64,'1111122,1111122,1111122' 
COMPS,ioos:station:USF.COMPS:ARP:1,2014-12-01T00:48:00Z,28.4330,-82.6670,10.0,2.22,86.56,3.23,'1111122,1111122,1111122' 
COMPS,ioos:station:USF.COMPS:ARP:1,2014-12-01T00:54:00Z,28.4330,-82.6670,10.0,2.02,84.79,2.84,'1111122,1111122,1111122' 
COMPS,ioos:station:USF.COMPS:ARP:1,2014-12-01T01:00:00Z,28.4330,-82.6670,10.0,2.17,86.23,3.33,'1111122,1111122,1111122' 
COMPS,ioos:station:USF.COMPS:ARP:1,2014-12-01T01:06:00Z,28.4330,-82.6670,10.0,2.02,86.04,2.93,'1111122,1111122,1111122' 
COMPS,ioos:station:USF.COMPS:ARP:1,2014-12-01T01:12:00Z,28.4330,-82.6670,10.0,1.82,86.64,3.03,'1111122,1111122,1111122' 
COMPS,ioos:station:USF.COMPS:ARP:1,2014-12-01T01:18:00Z,28.4330,-82.6670,10.0,2.06,85.25,2.74,'1111122,1111122,1111122' 
COMPS,ioos:station:USF.COMPS:ARP:1,2014-12-01T01:24:00Z,28.4330,-82.6670,10.0,2.22,82.86,3.03,'1111122,1111122,1111122' 
COMPS,ioos:station:USF.COMPS:ARP:1,2014-12-01T01:30:00Z,28.4330,-82.6670,10.0,2.12,84.64,3.13,'1111122,1111122,1111122' 
COMPS,ioos:station:USF.COMPS:ARP:1,2014-12-01T01:36:00Z,28.4330,-82.6670,10.0,1.98,89.92,2.84,'1111122,1111122,1111122' 
COMPS,ioos:station:USF.COMPS:ARP:1,2014-12-01T01:42:00Z,28.4330,-82.6670,10.0,2.04,89.47,2.84,'1111122,1111122,1111122' 
COMPS,ioos:station:USF.COMPS:ARP:1,2014-12-01T01:48:00Z,28.4330,-82.6670,10.0,1.95,90.94,3.03,'1111122,1111122,1111122' 
COMPS,ioos:station:USF.COMPS:ARP:1,2014-12-01T01:54:00Z,28.4330,-82.6670,10.0,2.1,93.45,2.93,'1111122,1111122,1111122' 
COMPS,ioos:station:USF.COMPS:ARP:1,2014-12-01T02:00:00Z,28.4330,-82.6670,10.0,2.02,91.41,3.52,'1111122,1111122,1111122' 
COMPS,ioos:station:USF.COMPS:ARP:1,2014-12-01T02:06:00Z,28.4330,-82.6670,10.0,1.88,96.66,2.64,'1111122,1111122,1111122' 
COMPS,ioos:station:USF.COMPS:ARP:1,2014-12-01T02:12:00Z,28.4330,-82.6670,10.0,1.84,94.0,2.64,'1111122,1111122,1111122' 
COMPS,ioos:station:USF.COMPS:ARP:1,2014-12-01T02:18:00Z,28.4330,-82.6670,10.0,1.84,93.06,2.54,'1111122,1111122,1111122' 
COMPS,ioos:station:USF.COMPS:ARP:1,2014-12-01T02:24:00Z,28.4330,-82.6670,10.0,1.82,93.03,2.74,'1111122,1111122,1111122' 
COMPS,ioos:station:USF.COMPS:ARP:1,2014-12-01T02:30:00Z,28.4330,-82.6670,10.0,1.67,91.41,2.35,'1111122,1111122,1111122' 
COMPS,ioos:station:USF.COMPS:ARP:1,2014-12-01T02:36:00Z,28.4330,-82.6670,10.0,1.91,88.34,2.64,'1111122,1111122,1111122' 
COMPS,ioos:station:USF.COMPS:ARP:1,2014-12-01T02:42:00Z,28.4330,-82.6670,10.0,1.96,88.13,2.45,'1111122,1111122,1111122' 
COMPS,ioos:station:USF.COMPS:ARP:1,2014-12-01T02:48:00Z,28.4330,-82.6670,10.0,2.04,87.36,3.23,'1111122,1111122,1111122' 
COMPS,ioos:station:USF.COMPS:ARP:1,2014-12-01T02:54:00Z,28.4330,-82.6670,10.0,2.02,84.32,2.84,'1111122,1111122,1111122' 
COMPS,ioos:station:USF.COMPS:ARP:1,2014-12-01T03:00:00Z,28.4330,-82.6670,10.0,2.07,83.86,3.03,'1111122,1111122,1111122' 
COMPS,ioos:station:USF.COMPS:ARP:1,2014-12-01T03:06:00Z,28.4330,-82.6670,10.0,1.99,86.24,2.64,'1111122,1111122,1111122' 
COMPS,ioos:station:USF.COMPS:ARP:1,2014-12-01T03:12:00Z,28.4330,-82.6670,10.0,2.08,86.36,3.13,'1111122,1111122,1111122' 
COMPS,ioos:station:USF.COMPS:ARP:1,2014-12-01T03:18:00Z,28.4330,-82.6670,10.0,1.76,92.25,2.54,'1111122,1111122,1111122' 
COMPS,ioos:station:USF.COMPS:ARP:1,2014-12-01T03:24:00Z,28.4330,-82.6670,10.0,1.73,83.74,2.25,'1111122,1111122,1111122' 
COMPS,ioos:station:USF.COMPS:ARP:1,2014-12-01T03:30:00Z,28.4330,-82.6670,10.0,1.83,84.43,2.45,'1111122,1111122,1111122' 
COMPS,ioos:station:USF.COMPS:ARP:1,2014-12-01T03:36:00Z,28.4330,-82.6670,10.0,1.61,85.85,2.15,'1111122,1111122,1111122' 
COMPS,ioos:station:USF.COMPS:ARP:1,2014-12-01T03:42:00Z,28.4330,-82.6670,10.0,1.58,87.56,2.15,'1111122,1111122,1111122' 
COMPS,ioos:station:USF.COMPS:ARP:1,2014-12-01T03:48:00Z,28.4330,-82.6670,10.0,1.76,83.64,2.45,'1111122,1111122,1111122' 
COMPS,ioos:station:USF.COMPS:ARP:1,2014-12-01T03:54:00Z,28.4330,-82.6670,10.0,1.64,88.06,2.15,'1111122,1111122,1111122' 
COMPS,ioos:station:USF.COMPS:ARP:1,2014-12-01T04:00:00Z,28.4330,-82.6670,10.0,1.63,85.98,2.45,'1111122,1111122,1111122' 
COMPS,ioos:station:USF.COMPS:ARP:1,2014-12-01T04:06:00Z,28.4330,-82.6670,10.0,1.68,84.36,2.05,'1111122,1111122,1111122' 
COMPS,ioos:station:USF.COMPS:ARP:1,2014-12-01T04:12:00Z,28.4330,-82.6670,10.0,1.74,84.57,2.45,'1111122,1111122,1111122' 
COMPS,ioos:station:USF.COMPS:ARP:1,2014-12-01T04:18:00Z,28.4330,-82.6670,10.0,1.51,82.27,2.25,'1111122,1111122,1111122' 
COMPS,ioos:station:USF.COMPS:ARP:1,2014-12-01T04:24:00Z,28.4330,-82.6670,10.0,1.76,86.24,2.84,'1111122,1111122,1111122' 
COMPS,ioos:station:USF.COMPS:ARP:1,2014-12-01T04:30:00Z,28.4330,-82.6670,10.0,1.8,88.1,2.45,'1111122,1111122,1111122' 
COMPS,ioos:station:USF.COMPS:ARP:1,2014-12-01T04:36:00Z,28.4330,-82.6670,10.0,1.68,86.83,2.54,'1111122,1111122,1111122' 
COMPS,ioos:station:USF.COMPS:ARP:1,2014-12-01T04:42:00Z,28.4330,-82.6670,10.0,1.79,86.4,3.03,'1111122,1111122,1111122' 
COMPS,ioos:station:USF.COMPS:ARP:1,2014-12-01T04:48:00Z,28.4330,-82.6670,10.0,1.92,83.79,2.64,'1111122,1111122,1111122' 
COMPS,ioos:station:USF.COMPS:ARP:1,2014-12-01T04:54:00Z,28.4330,-82.6670,10.0,1.83,82.83,2.35,'1111122,1111122,1111122' 
COMPS,ioos:station:USF.COMPS:ARP:1,2014-12-01T05:00:00Z,28.4330,-82.6670,10.0,1.91,85.51,2.54,'1111122,1111122,1111122' 
COMPS,ioos:station:USF.COMPS:ARP:1,2014-12-01T05:06:00Z,28.4330,-82.6670,10.0,1.84,85.72,2.93,'1111122,1111122,1111122' 
COMPS,ioos:station:USF.COMPS:ARP:1,2014-12-01T05:12:00Z,28.4330,-82.6670,10.0,2.0,81.79,2.74,'1111122,1111122,1111122' 
COMPS,ioos:station:USF.COMPS:ARP:1,2014-12-01T05:18:00Z,28.4330,-82.6670,10.0,2.06,83.61,2.93,'1111122,1111122,1111122' 
COMPS,ioos:station:USF.COMPS:ARP:1,2014-12-01T05:24:00Z,28.4330,-82.6670,10.0,1.91,87.26,2.64,'1111122,1111122,1111122' 
COMPS,ioos:station:USF.COMPS:ARP:1,2014-12-01T05:30:00Z,28.4330,-82.6670,10.0,2.08,84.81,2.84,'1111122,1111122,1111122' 
COMPS,ioos:station:USF.COMPS:ARP:1,2014-12-01T05:36:00Z,28.4330,-82.6670,10.0,2.15,89.98,3.23,'1111122,1111122,1111122' 
COMPS,ioos:station:USF.COMPS:ARP:1,2014-12-01T05:42:00Z,28.4330,-82.6670,10.0,2.04,87.14,2.74,'1111122,1111122,1111122' 
COMPS,ioos:station:USF.COMPS:ARP:1,2014-12-01T05:48:00Z,28.4330,-82.6670,10.0,2.21,85.52,2.93,'1111122,1111122,1111122' 
COMPS,ioos:station:USF.COMPS:ARP:1,2014-12-01T05:54:00Z,28.4330,-82.6670,10.0,2.02,87.24,2.54,'1111122,1111122,1111122' 
COMPS,ioos:station:USF.COMPS:ARP:1,2014-12-01T06:00:00Z,28.4330,-82.6670,10.0,2.12,87.86,2.74,'1111122,1111122,1111122' 
COMPS,ioos:station:USF.COMPS:ARP:1,2014-12-01T06:06:00Z,28.4330,-82.6670,10.0,2.06,87.58,3.03,'1111122,1111122,1111122' 
COMPS,ioos:station:USF.COMPS:ARP:1,2014-12-01T06:12:00Z,28.4330,-82.6670,10.0,2.21,86.9,3.03,'1111122,1111122,1111122' 
COMPS,ioos:station:USF.COMPS:ARP:1,2014-12-01T06:18:00Z,28.4330,-82.6670,10.0,1.68,95.58,2.45,'1111122,1111122,1111122' 
COMPS,ioos:station:USF.COMPS:ARP:1,2014-12-01T06:24:00Z,28.4330,-82.6670,10.0,1.81,90.65,2.74,'1111122,1111122,1111122' 
COMPS,ioos:station:USF.COMPS:ARP:1,2014-12-01T06:30:00Z,28.4330,-82.6670,10.0,1.95,93.83,2.74,'1111122,1111122,1111122' 
COMPS,ioos:station:USF.COMPS:ARP:1,2014-12-01T06:36:00Z,28.4330,-82.6670,10.0,1.97,93.21,2.74,'1111122,1111122,1111122' 
COMPS,ioos:station:USF.COMPS:ARP:1,2014-12-01T06:42:00Z,28.4330,-82.6670,10.0,2.0,88.61,3.03,'1111122,1111122,1111122' 
COMPS,ioos:station:USF.COMPS:ARP:1,2014-12-01T06:48:00Z,28.4330,-82.6670,10.0,2.13,92.0,2.74,'1111122,1111122,1111122' 
COMPS,ioos:station:USF.COMPS:ARP:1,2014-12-01T06:54:00Z,28.4330,-82.6670,10.0,1.89,89.86,2.74,'1111122,1111122,1111122' 
COMPS,ioos:station:USF.COMPS:ARP:1,2014-12-01T07:00:00Z,28.4330,-82.6670,10.0,1.82,86.69,2.15,'1111122,1111122,1111122' 
COMPS,ioos:station:USF.COMPS:ARP:1,2014-12-01T07:06:00Z,28.4330,-82.6670,10.0,2.56,82.9,3.82,'1111122,1111122,1111122' 
COMPS,ioos:station:USF.COMPS:ARP:1,2014-12-01T07:12:00Z,28.4330,-82.6670,10.0,2.66,83.85,3.72,'1111122,1111122,1111122' 
COMPS,ioos:station:USF.COMPS:ARP:1,2014-12-01T07:18:00Z,28.4330,-82.6670,10.0,2.74,86.39,3.91,'1111122,1111122,1111122' 
COMPS,ioos:station:USF.COMPS:ARP:1,2014-12-01T07:24:00Z,28.4330,-82.6670,10.0,2.43,85.83,3.23,'1111122,1111122,1111122' 
COMPS,ioos:station:USF.COMPS:ARP:1,2014-12-01T07:30:00Z,28.4330,-82.6670,10.0,2.28,87.2,3.13,'1111122,1111122,1111122' 
COMPS,ioos:station:USF.COMPS:ARP:1,2014-12-01T07:36:00Z,28.4330,-82.6670,10.0,2.23,86.79,3.13,'1111122,1111122,1111122' 
COMPS,ioos:station:USF.COMPS:ARP:1,2014-12-01T07:42:00Z,28.4330,-82.6670,10.0,2.49,87.11,3.33,'1111122,1111122,1111122' 
COMPS,ioos:station:USF.COMPS:ARP:1,2014-12-01T07:48:00Z,28.4330,-82.6670,10.0,2.22,86.48,3.42,'1111122,1111122,1111122' 
COMPS,ioos:station:USF.COMPS:ARP:1,2014-12-01T07:54:00Z,28.4330,-82.6670,10.0,2.31,85.43,3.13,'1111122,1111122,1111122' 
COMPS,ioos:station:USF.COMPS:ARP:1,2014-12-01T08:00:00Z,28.4330,-82.6670,10.0,2.24,86.73,3.42,'1111122,1111122,1111122' 
COMPS,ioos:station:USF.COMPS:ARP:1,2014-12-01T08:06:00Z,28.4330,-82.6670,10.0,2.47,83.93,3.91,'1111122,1111122,1111122' 
COMPS,ioos:station:USF.COMPS:ARP:1,2014-12-01T08:12:00Z,28.4330,-82.6670,10.0,2.37,85.69,3.23,'1111122,1111122,1111122' 
COMPS,ioos:station:USF.COMPS:ARP:1,2014-12-01T08:18:00Z,28.4330,-82.6670,10.0,2.36,84.63,3.72,'1111122,1111122,1111122' 
COMPS,ioos:station:USF.COMPS:ARP:1,2014-12-01T08:24:00Z,28.4330,-82.6670,10.0,2.33,85.51,3.33,'1111122,1111122,1111122' 
COMPS,ioos:station:USF.COMPS:ARP:1,2014-12-01T08:30:00Z,28.4330,-82.6670,10.0,2.28,87.96,3.42,'1111122,1111122,1111122' 
COMPS,ioos:station:USF.COMPS:ARP:1,2014-12-01T08:36:00Z,28.4330,-82.6670,10.0,2.22,87.27,3.03,'1111122,1111122,1111122' 
COMPS,ioos:station:USF.COMPS:ARP:1,2014-12-01T08:42:00Z,28.4330,-82.6670,10.0,2.11,87.7,3.42,'1111122,1111122,1111122' 
COMPS,ioos:station:USF.COMPS:ARP:1,2014-12-01T08:48:00Z,28.4330,-82.6670,10.0,2.2,84.79,3.03,'1111122,1111122,1111122' 
COMPS,ioos:station:USF.COMPS:ARP:1,2014-12-01T08:54:00Z,28.4330,-82.6670,10.0,2.33,84.27,3.13,'1111122,1111122,1111122' 
COMPS,ioos:station:USF.COMPS:ARP:1,2014-12-01T09:00:00Z,28.4330,-82.6670,10.0,2.28,83.42,3.13,'1111122,1111122,1111122' 
COMPS,ioos:station:USF.COMPS:ARP:1,2014-12-01T09:06:00Z,28.4330,-82.6670,10.0,2.25,82.26,2.84,'1111122,1111122,1111122' 
COMPS,ioos:station:USF.COMPS:ARP:1,2014-12-01T09:12:00Z,28.4330,-82.6670,10.0,2.0,88.06,2.93,'1111122,1111122,1111122' 
COMPS,ioos:station:USF.COMPS:ARP:1,2014-12-01T09:18:00Z,28.4330,-82.6670,10.0,1.91,86.15,2.54,'1111122,1111122,1111122' 
COMPS,ioos:station:USF.COMPS:ARP:1,2014-12-01T09:24:00Z,28.4330,-82.6670,10.0,1.79,84.05,2.64,'1111122,1111122,1111122' 
COMPS,ioos:station:USF.COMPS:ARP:1,2014-12-01T09:30:00Z,28.4330,-82.6670,10.0,1.85,87.02,2.64,'1111122,1111122,1111122' 
COMPS,ioos:station:USF.COMPS:ARP:1,2014-12-01T09:36:00Z,28.4330,-82.6670,10.0,2.16,85.96,3.23,'1111122,1111122,1111122' 
COMPS,ioos:station:USF.COMPS:ARP:1,2014-12-01T09:42:00Z,28.4330,-82.6670,10.0,1.98,83.87,2.64,'1111122,1111122,1111122' 
COMPS,ioos:station:USF.COMPS:ARP:1,2014-12-01T09:48:00Z,28.4330,-82.6670,10.0,2.15,77.46,3.03,'1111122,1111122,1111122' 
COMPS,ioos:station:USF.COMPS:ARP:1,2014-12-01T09:54:00Z,28.4330,-82.6670,10.0,2.22,73.28,2.74,'1111122,1111122,1111122' 
COMPS,ioos:station:USF.COMPS:ARP:1,2014-12-01T10:00:00Z,28.4330,-82.6670,10.0,2.19,69.66,2.93,'1111122,1111122,1111122' 
COMPS,ioos:station:USF.COMPS:ARP:1,2014-12-01T10:06:00Z,28.4330,-82.6670,10.0,2.39,69.07,3.23,'1111122,1111122,1111122' 
COMPS,ioos:station:USF.COMPS:ARP:1,2014-12-01T10:12:00Z,28.4330,-82.6670,10.0,1.8,68.7,2.64,'1111122,1111122,1111122' 
COMPS,ioos:station:USF.COMPS:ARP:1,2014-12-01T10:18:00Z,28.4330,-82.6670,10.0,1.38,70.86,2.05,'1111122,1111122,1111122' 
COMPS,ioos:station:USF.COMPS:ARP:1,2014-12-01T10:24:00Z,28.4330,-82.6670,10.0,1.08,71.46,1.86,'1111122,1111122,1111122' 
COMPS,ioos:station:USF.COMPS:ARP:1,2014-12-01T10:30:00Z,28.4330,-82.6670,10.0,1.37,72.62,2.25,'1111122,1111122,1111122' 
COMPS,ioos:station:USF.COMPS:ARP:1,2014-12-01T10:36:00Z,28.4330,-82.6670,10.0,1.82,74.84,2.54,'1111122,1111122,1111122' 
COMPS,ioos:station:USF.COMPS:ARP:1,2014-12-01T10:42:00Z,28.4330,-82.6670,10.0,2.06,76.76,2.54,'1111122,1111122,1111122' 
COMPS,ioos:station:USF.COMPS:ARP:1,2014-12-01T10:48:00Z,28.4330,-82.6670,10.0,1.94,80.8,2.84,'1111122,1111122,1111122' 
COMPS,ioos:station:USF.COMPS:ARP:1,2014-12-01T10:54:00Z,28.4330,-82.6670,10.0,2.05,79.12,2.84,'1111122,1111122,1111122' 
COMPS,ioos:station:USF.COMPS:ARP:1,2014-12-01T11:00:00Z,28.4330,-82.6670,10.0,2.2,81.27,3.91,'1111122,1111122,1111122' 
COMPS,ioos:station:USF.COMPS:ARP:1,2014-12-01T11:06:00Z,28.4330,-82.6670,10.0,2.07,80.62,3.23,'1111122,1111122,1111122' 
COMPS,ioos:station:USF.COMPS:ARP:1,2014-12-01T11:12:00Z,28.4330,-82.6670,10.0,2.28,84.06,3.33,'1111122,1111122,1111122' 
COMPS,ioos:station:USF.COMPS:ARP:1,2014-12-01T11:18:00Z,28.4330,-82.6670,10.0,2.35,80.88,3.03,'1111122,1111122,1111122' 
COMPS,ioos:station:USF.COMPS:ARP:1,2014-12-01T11:24:00Z,28.4330,-82.6670,10.0,3.43,80.14,4.7,'1111122,1111122,1111122' 
COMPS,ioos:station:USF.COMPS:ARP:1,2014-12-01T11:30:00Z,28.4330,-82.6670,10.0,3.53,77.6,4.8,'1111122,1111122,1111122' 
COMPS,ioos:station:USF.COMPS:ARP:1,2014-12-01T11:36:00Z,28.4330,-82.6670,10.0,3.68,77.04,5.78,'1111122,1111122,1111122' 
COMPS,ioos:station:USF.COMPS:ARP:1,2014-12-01T11:42:00Z,28.4330,-82.6670,10.0,3.65,81.18,4.99,'1111122,1111122,1111122' 
COMPS,ioos:station:USF.COMPS:ARP:1,2014-12-01T11:48:00Z,28.4330,-82.6670,10.0,3.73,81.46,4.99,'1111122,1111122,1111122' 
COMPS,ioos:station:USF.COMPS:ARP:1,2014-12-01T11:54:00Z,28.4330,-82.6670,10.0,3.68,81.56,4.9,'1111122,1111122,1111122' 
COMPS,ioos:station:USF.COMPS:ARP:1,2014-12-01T12:00:00Z,28.4330,-82.6670,10.0,3.46,82.25,5.58,'1111122,1111122,1111122' 
COMPS,ioos:station:USF.COMPS:ARP:1,2014-12-01T12:06:00Z,28.4330,-82.6670,10.0,3.89,83.09,6.07,'1111122,1111122,1111122' 
COMPS,ioos:station:USF.COMPS:ARP:1,2014-12-01T12:12:00Z,28.4330,-82.6670,10.0,3.27,82.25,4.7,'1111122,1111122,1111122' 
COMPS,ioos:station:USF.COMPS:ARP:1,2014-12-01T12:18:00Z,28.4330,-82.6670,10.0,2.91,88.13,4.8,'1111122,1111122,1111122' 
COMPS,ioos:station:USF.COMPS:ARP:1,2014-12-01T12:24:00Z,28.4330,-82.6670,10.0,3.22,88.23,4.5,'1111122,1111122,1111122' 
COMPS,ioos:station:USF.COMPS:ARP:1,2014-12-01T12:30:00Z,28.4330,-82.6670,10.0,3.16,88.04,4.01,'1111122,1111122,1111122' 
COMPS,ioos:station:USF.COMPS:ARP:1,2014-12-01T12:36:00Z,28.4330,-82.6670,10.0,3.02,84.8,4.5,'1111122,1111122,1111122' 
COMPS,ioos:station:USF.COMPS:ARP:1,2014-12-01T12:42:00Z,28.4330,-82.6670,10.0,3.17,85.2,4.99,'1111122,1111122,1111122' 
COMPS,ioos:station:USF.COMPS:ARP:1,2014-12-01T12:48:00Z,28.4330,-82.6670,10.0,2.77,88.4,3.91,'1111122,1111122,1111122' 
COMPS,ioos:station:USF.COMPS:ARP:1,2014-12-01T12:54:00Z,28.4330,-82.6670,10.0,3.36,92.12,5.29,'1111122,1111122,1111122' 
COMPS,ioos:station:USF.COMPS:ARP:1,2014-12-01T13:00:00Z,28.4330,-82.6670,10.0,3.13,93.7,4.41,'1111122,1111122,1111122' 
COMPS,ioos:station:USF.COMPS:ARP:1,2014-12-01T13:06:00Z,28.4330,-82.6670,10.0,3.19,94.59,4.6,'1111122,1111122,1111122' 
COMPS,ioos:station:USF.COMPS:ARP:1,2014-12-01T13:12:00Z,28.4330,-82.6670,10.0,3.07,93.27,4.21,'1111122,1111122,1111122' 
COMPS,ioos:station:USF.COMPS:ARP:1,2014-12-01T13:18:00Z,28.4330,-82.6670,10.0,3.14,97.94,4.5,'1111122,1111122,1111122' 
COMPS,ioos:station:USF.COMPS:ARP:1,2014-12-01T13:24:00Z,28.4330,-82.6670,10.0,3.67,95.84,4.99,'1111122,1111122,1111122' 
COMPS,ioos:station:USF.COMPS:ARP:1,2014-12-01T13:30:00Z,28.4330,-82.6670,10.0,3.46,91.94,5.29,'1111122,1111122,1111122' 
COMPS,ioos:station:USF.COMPS:ARP:1,2014-12-01T13:36:00Z,28.4330,-82.6670,10.0,3.44,93.83,4.99,'1111122,1111122,1111122' 
COMPS,ioos:station:USF.COMPS:ARP:1,2014-12-01T13:42:00Z,28.4330,-82.6670,10.0,2.94,96.04,4.41,'1111122,1111122,1111122' 
COMPS,ioos:station:USF.COMPS:ARP:1,2014-12-01T13:48:00Z,28.4330,-82.6670,10.0,3.52,91.67,5.09,'1111122,1111122,1111122' 
COMPS,ioos:station:USF.COMPS:ARP:1,2014-12-01T13:54:00Z,28.4330,-82.6670,10.0,3.35,95.08,4.9,'1111122,1111122,1111122' 
COMPS,ioos:station:USF.COMPS:ARP:1,2014-12-01T14:00:00Z,28.4330,-82.6670,10.0,3.22,96.99,4.7,'1111122,1111122,1111122' 
COMPS,ioos:station:USF.COMPS:ARP:1,2014-12-01T14:06:00Z,28.4330,-82.6670,10.0,3.2,94.77,5.19,'1111122,1111122,1111122' 
COMPS,ioos:station:USF.COMPS:ARP:1,2014-12-01T14:12:00Z,28.4330,-82.6670,10.0,3.13,96.33,5.48,'1111122,1111122,1111122' 
COMPS,ioos:station:USF.COMPS:ARP:1,2014-12-01T14:18:00Z,28.4330,-82.6670,10.0,3.62,91.41,4.99,'1111122,1111122,1111122' 
COMPS,ioos:station:USF.COMPS:ARP:1,2014-12-01T14:24:00Z,28.4330,-82.6670,10.0,3.77,88.58,5.19,'1111122,1111122,1111122' 
COMPS,ioos:station:USF.COMPS:ARP:1,2014-12-01T14:30:00Z,28.4330,-82.6670,10.0,3.57,96.62,6.17,'1111122,1111122,1111122' 
COMPS,ioos:station:USF.COMPS:ARP:1,2014-12-01T14:36:00Z,28.4330,-82.6670,10.0,3.0,91.69,5.19,'1111122,1111122,1111122' 
COMPS,ioos:station:USF.COMPS:ARP:1,2014-12-01T14:42:00Z,28.4330,-82.6670,10.0,2.7,90.66,4.9,'1111122,1111122,1111122' 
COMPS,ioos:station:USF.COMPS:ARP:1,2014-12-01T14:48:00Z,28.4330,-82.6670,10.0,3.27,89.85,4.8,'1111122,1111122,1111122' 
COMPS,ioos:station:USF.COMPS:ARP:1,2014-12-01T14:54:00Z,28.4330,-82.6670,10.0,3.57,87.76,5.58,'1111122,1111122,1111122' 
COMPS,ioos:station:USF.COMPS:ARP:1,2014-12-01T15:00:00Z,28.4330,-82.6670,10.0,3.01,95.31,5.48,'1111122,1111122,1111122' 
COMPS,ioos:station:USF.COMPS:ARP:1,2014-12-01T15:06:00Z,28.4330,-82.6670,10.0,2.88,99.01,5.29,'1111122,1111122,1111122' 
COMPS,ioos:station:USF.COMPS:ARP:1,2014-12-01T15:12:00Z,28.4330,-82.6670,10.0,3.6,97.76,4.9,'1111122,1111122,1111122' 
COMPS,ioos:station:USF.COMPS:ARP:1,2014-12-01T15:18:00Z,28.4330,-82.6670,10.0,3.07,88.83,5.19,'1111122,1111122,1111122' 
COMPS,ioos:station:USF.COMPS:ARP:1,2014-12-01T15:24:00Z,28.4330,-82.6670,10.0,3.19,93.25,5.39,'1111122,1111122,1111122' 
COMPS,ioos:station:USF.COMPS:ARP:1,2014-12-01T15:30:00Z,28.4330,-82.6670,10.0,3.91,79.79,6.17,'1111122,1111122,1111122' 
COMPS,ioos:station:USF.COMPS:ARP:1,2014-12-01T15:36:00Z,28.4330,-82.6670,10.0,3.75,85.48,5.29,'1111122,1111122,1111122' 
COMPS,ioos:station:USF.COMPS:ARP:1,2014-12-01T15:42:00Z,28.4330,-82.6670,10.0,2.32,91.54,3.91,'1111122,1111122,1111122' 
COMPS,ioos:station:USF.COMPS:ARP:1,2014-12-01T15:48:00Z,28.4330,-82.6670,10.0,2.85,86.85,4.9,'1111122,1111122,1111122' 
COMPS,ioos:station:USF.COMPS:ARP:1,2014-12-01T15:54:00Z,28.4330,-82.6670,10.0,3.74,87.45,5.97,'1111122,1111122,1111122' 
COMPS,ioos:station:USF.COMPS:ARP:1,2014-12-01T16:00:00Z,28.4330,-82.6670,10.0,3.03,95.2,5.68,'1111122,1111122,1111122' 
COMPS,ioos:station:USF.COMPS:ARP:1,2014-12-01T16:06:00Z,28.4330,-82.6670,10.0,3.15,89.15,5.29,'1111122,1111122,1111122' 
COMPS,ioos:station:USF.COMPS:ARP:1,2014-12-01T16:12:00Z,28.4330,-82.6670,10.0,4.2,80.44,5.78,'1111122,1111122,1111122' 
COMPS,ioos:station:USF.COMPS:ARP:1,2014-12-01T16:18:00Z,28.4330,-82.6670,10.0,3.36,89.65,5.39,'1111122,1111122,1111122' 
COMPS,ioos:station:USF.COMPS:ARP:1,2014-12-01T16:24:00Z,28.4330,-82.6670,10.0,3.69,81.39,5.58,'1111122,1111122,1111122' 
COMPS,ioos:station:USF.COMPS:ARP:1,2014-12-01T16:30:00Z,28.4330,-82.6670,10.0,4.06,98.6,6.76,'1111122,1111122,1111122' 
COMPS,ioos:station:USF.COMPS:ARP:1,2014-12-01T16:36:00Z,28.4330,-82.6670,10.0,3.65,89.81,5.58,'1111122,1111122,1111122' 
COMPS,ioos:station:USF.COMPS:ARP:1,2014-12-01T16:42:00Z,28.4330,-82.6670,10.0,3.76,82.07,6.17,'1111122,1111122,1111122' 
COMPS,ioos:station:USF.COMPS:ARP:1,2014-12-01T16:48:00Z,28.4330,-82.6670,10.0,4.03,84.54,6.07,'1111122,1111122,1111122' 
COMPS,ioos:station:USF.COMPS:ARP:1,2014-12-01T16:54:00Z,28.4330,-82.6670,10.0,3.62,93.1,5.87,'1111122,1111122,1111122' 
COMPS,ioos:station:USF.COMPS:ARP:1,2014-12-01T17:00:00Z,28.4330,-82.6670,10.0,3.87,82.88,5.97,'1111122,1111122,1111122' 
COMPS,ioos:station:USF.COMPS:ARP:1,2014-12-01T17:06:00Z,28.4330,-82.6670,10.0,2.39,85.43,4.7,'1111122,1111122,1111122' 
COMPS,ioos:station:USF.COMPS:ARP:1,2014-12-01T17:12:00Z,28.4330,-82.6670,10.0,3.43,96.19,5.97,'1111122,1111122,1111122' 
COMPS,ioos:station:USF.COMPS:ARP:1,2014-12-01T17:18:00Z,28.4330,-82.6670,10.0,2.72,83.84,4.11,'1111122,1111122,1111122' 
COMPS,ioos:station:USF.COMPS:ARP:1,2014-12-01T17:24:00Z,28.4330,-82.6670,10.0,4.11,82.19,6.37,'1111122,1111122,1111122' 
COMPS,ioos:station:USF.COMPS:ARP:1,2014-12-01T17:30:00Z,28.4330,-82.6670,10.0,2.85,80.98,5.48,'1111122,1111122,1111122' 
COMPS,ioos:station:USF.COMPS:ARP:1,2014-12-01T17:36:00Z,28.4330,-82.6670,10.0,4.06,73.59,7.54,'1111122,1111122,1111122' 
COMPS,ioos:station:USF.COMPS:ARP:1,2014-12-01T17:42:00Z,28.4330,-82.6670,10.0,3.05,86.27,5.48,'1111122,1111122,1111122' 
COMPS,ioos:station:USF.COMPS:ARP:1,2014-12-01T17:48:00Z,28.4330,-82.6670,10.0,3.63,95.33,5.87,'1111122,1111122,1111122' 
COMPS,ioos:station:USF.COMPS:ARP:1,2014-12-01T17:54:00Z,28.4330,-82.6670,10.0,3.15,94.57,6.37,'1111122,1111122,1111122' 
COMPS,ioos:station:USF.COMPS:ARP:1,2014-12-01T18:00:00Z,28.4330,-82.6670,10.0,3.52,93.69,6.37,'1111122,1111122,1111122' 
COMPS,ioos:station:USF.COMPS:ARP:1,2014-12-01T18:06:00Z,28.4330,-82.6670,10.0,3.87,92.72,5.87,'1111122,1111122,1111122' 
COMPS,ioos:station:USF.COMPS:ARP:1,2014-12-01T18:12:00Z,28.4330,-82.6670,10.0,3.6,95.13,5.58,'1111122,1111122,1111122' 
COMPS,ioos:station:USF.COMPS:ARP:1,2014-12-01T18:18:00Z,28.4330,-82.6670,10.0,2.95,90.93,4.5,'1111122,1111122,1111122' 
COMPS,ioos:station:USF.COMPS:ARP:1,2014-12-01T18:24:00Z,28.4330,-82.6670,10.0,3.67,97.36,5.87,'1111122,1111122,1111122' 
COMPS,ioos:station:USF.COMPS:ARP:1,2014-12-01T18:30:00Z,28.4330,-82.6670,10.0,3.27,111.31,4.99,'1111122,1111122,1111122' 
COMPS,ioos:station:USF.COMPS:ARP:1,2014-12-01T18:36:00Z,28.4330,-82.6670,10.0,3.03,105.81,5.97,'1111122,1111122,1111122' 
COMPS,ioos:station:USF.COMPS:ARP:1,2014-12-01T18:42:00Z,28.4330,-82.6670,10.0,3.77,113.86,6.85,'1111122,1111122,1111122' 
COMPS,ioos:station:USF.COMPS:ARP:1,2014-12-01T18:48:00Z,28.4330,-82.6670,10.0,3.07,109.28,5.09,'1111122,1111122,1111122' 
COMPS,ioos:station:USF.COMPS:ARP:1,2014-12-01T18:54:00Z,28.4330,-82.6670,10.0,2.9,121.32,5.39,'1111122,1111122,1111122' 
COMPS,ioos:station:USF.COMPS:ARP:1,2014-12-01T19:00:00Z,28.4330,-82.6670,10.0,2.2,156.44,4.8,'1111122,1111122,1111122' 
COMPS,ioos:station:USF.COMPS:ARP:1,2014-12-01T19:06:00Z,28.4330,-82.6670,10.0,1.9,157.92,4.01,'1111122,1111122,1111122' 
COMPS,ioos:station:USF.COMPS:ARP:1,2014-12-01T19:12:00Z,28.4330,-82.6670,10.0,1.71,181.49,3.52,'1111122,1111122,1111122' 
COMPS,ioos:station:USF.COMPS:ARP:1,2014-12-01T19:18:00Z,28.4330,-82.6670,10.0,1.05,153.86,2.25,'1111122,1111122,1111122' 
COMPS,ioos:station:USF.COMPS:ARP:1,2014-12-01T19:24:00Z,28.4330,-82.6670,10.0,1.35,113.85,2.74,'1111122,1111122,1111122' 
COMPS,ioos:station:USF.COMPS:ARP:1,2014-12-01T19:30:00Z,28.4330,-82.6670,10.0,1.87,85.24,3.13,'1111122,1111122,1111122' 
COMPS,ioos:station:USF.COMPS:ARP:1,2014-12-01T19:36:00Z,28.4330,-82.6670,10.0,2.76,79.65,4.21,'1111122,1111122,1111122' 